EW5738 Weather Reports


Display with metric or nautical units.
time (UTC)temp
F
wind
direction
speed
MPH
gust
MPH
rain 1hr
in
rain 24hr
in
rain mn
in
humidity
%
barometer
mb
20260906050026 93 226 9.0 20.0 0.00 0.00 0.00 26 1012.4
20260906044525 91 248 6.0 15.0 0.00 0.00 0.00 27 1012.7
20260906043023 92 191 7.0 15.0 0.00 0.00 0.00 27 1012.6
20260906041629 93 193 5.0 20.0 0.00 0.00 0.00 27 1012.5
20260906040024 93 248 6.0 14.0 0.00 0.00 0.00 27 1012.6
20260906034515 92 303 7.0 24.0 0.00 0.00 0.00 29 1012.8
20260906033013 92 293 8.0 18.0 0.00 0.00 0.00 31 1012.6
20260906031514 92 311 8.0 16.0 0.00 0.00 0.00 30 1013.1
20260906030009 92 276 6.0 14.0 0.00 0.00 0.00 32 1013.3
20260906024507 92 286 6.0 16.0 0.00 0.00 0.00 32 1013.8
20260906023054 92 197 6.0 15.0 0.00 0.00 0.00 32 1014.1
20260906021550 91 274 3.0 12.0 0.00 0.00 0.00 31 1014.4
20260906020044 90 260 4.0 12.0 0.00 0.00 0.00 35 1014.6
20260906014607 90 335 4.0 9.0 0.00 0.00 0.00 35 1014.9
20260906013045 89 227 4.0 12.0 0.00 0.00 0.00 36 1015.1
20260906011534 88 314 4.0 11.0 0.00 0.00 0.00 38 1015.3
20260906010030 88 283 3.0 10.0 0.00 0.00 0.00 38 1015.6
20260906004526 86 324 5.0 12.0 0.00 0.00 0.00 38 1016.0
20260906003021 86 293 6.0 11.0 0.00 0.00 0.00 41 1016.1
20260906001522 84 296 8.0 14.0 0.00 0.00 0.00 42 1016.3
20260906000013 82 223 4.0 8.0 0.00 0.00 0.00 59 1016.3
20260905234509 80 312 4.0 7.0 0.00 0.00 0.00 59 1016.5
20260905233005 77 35 2.0 5.0 0.00 0.00 0.00 66 1016.4
20260905231559 75 269 1.0 5.0 0.00 0.00 0.00 70 1016.5
20260905230055 74 349 1.0 5.0 0.00 0.00 0.00 74 1016.7
20260905224551 72 323 2.0 4.0 0.00 0.00 0.00 79 1017.0
20260905223047 71 327 2.0 4.0 0.00 0.00 0.00 82 1017.1
20260905221605 69 178 2.0 5.0 0.00 0.00 0.00 85 1017.2
20260905220041 69 124 4.0 8.0 0.00 0.00 0.00 87 1017.2
20260905214537 67 127 1.0 5.0 0.00 0.00 0.00 92 1017.0
20260905213045 64 297 2.0 4.0 0.00 0.00 0.00 95 1016.8
20260905211537 63 295 3.0 5.0 0.00 0.00 0.00 95 1016.7
20260905210036 63 309 2.0 4.0 0.00 0.00 0.00 95 1016.6
20260905204530 63 344 1.0 5.0 0.00 0.00 0.00 95 1016.5
20260905203027 63 307 3.0 6.0 0.00 0.00 0.00 95 1016.6
20260905201526 63 257 1.0 4.0 0.00 0.00 0.00 95 1016.6
20260905200023 62 314 1.0 2.0 0.00 0.00 0.00 96 1016.7
20260905194521 63 303 0.0 3.0 0.00 0.00 0.00 95 1016.8
20260905193021 63 314 1.0 5.0 0.00 0.00 0.00 95 1016.8
20260905191517 63 135 0.0 4.0 0.00 0.00 0.00 95 1016.6
20260905190016 63 206 1.0 3.0 0.00 0.00 0.00 95 1016.5
20260905184522 63 290 2.0 3.0 0.00 0.00 0.00 95 1016.4
20260905183015 62 324 1.0 5.0 0.00 0.00 0.00 95 1016.4
20260905181512 62 305 2.0 4.0 0.00 0.00 0.00 95 1016.8
20260905180016 62 178 1.0 3.0 0.00 0.00 0.00 95 1016.3
20260905174510 62 269 0.0 2.0 0.00 0.00 0.00 95 1016.0
20260905173007 61 283 1.0 3.0 0.00 0.00 0.00 95 1015.6
20260905171505 62 169 1.0 3.0 0.00 0.00 0.00 95 1015.6
20260905170004 62 284 1.0 3.0 0.00 0.00 0.00 94 1015.7
20260905164601 62 284 1.0 3.0 0.00 0.00 0.00 94 1015.7
20260905163057 63 306 1.0 2.0 0.00 0.00 0.00 94 1015.9
20260905161603 63 314 1.0 2.0 0.00 0.00 0.00 95 1015.9
20260905160054 62 306 1.0 2.0 0.00 0.00 0.00 94 1016.0
20260905154602 63 340 0.0 2.0 0.00 0.00 0.00 94 1016.2
20260905153148 63 306 1.0 2.0 0.00 0.00 0.00 94 1016.4
20260905151545 63 314 1.0 3.0 0.00 0.00 0.00 94 1016.5
20260905150043 63 324 0.0 3.0 0.00 0.00 0.00 93 1016.5
20260905144542 64 184 3.0 5.0 0.00 0.00 0.00 93 1016.6
20260905143040 64 269 1.0 3.0 0.00 0.00 0.00 93 1016.5
20260905141536 65 1 0.0 2.0 0.00 0.00 0.00 93 1016.8
20260905140036 65 290 1.0 2.0 0.00 0.00 0.00 93 1016.9
20260905134537 65 283 1.0 2.0 0.00 0.00 0.00 93 1016.9
20260905133032 65 193 1.0 3.0 0.00 0.00 0.00 92 1016.9
20260905131531 65 296 2.0 4.0 0.00 0.00 0.00 93 1016.9
20260905130032 66 290 1.0 2.0 0.00 0.00 0.00 92 1016.9
20260905124529 66 197 0.0 2.0 0.00 0.00 0.00 91 1016.9
20260905123027 67 1 0.0 2.0 0.00 0.00 0.00 92 1016.9
20260905121527 67 331 0.0 2.0 0.00 0.00 0.00 92 1016.9
20260905120026 67 331 1.0 2.0 0.00 0.00 0.00 91 1017.1
20260905114520 67 314 1.0 3.0 0.00 0.00 0.00 89 1017.2
20260905113020 67 28 1.0 3.0 0.00 0.00 0.00 90 1017.2
20260905111520 68 331 2.0 3.0 0.00 0.00 0.00 88 1017.2
20260905110017 69 1 0.0 2.0 0.00 0.00 0.00 88 1017.2
20260905104516 69 1 1.0 3.0 0.00 0.00 0.00 87 1017.2
20260905103016 70 342 2.0 3.0 0.00 0.00 0.00 86 1017.2
20260905101517 70 8 2.0 3.0 0.00 0.00 0.00 86 1017.2
20260905100020 70 324 2.0 4.0 0.00 0.00 0.00 86 1017.1
20260905094512 70 340 2.0 5.0 0.00 0.00 0.00 86 1017.2
20260905093011 70 340 3.0 6.0 0.00 0.00 0.00 86 1017.2
20260905090007 70 314 2.0 3.0 0.00 0.00 0.00 83 1017.0
20260905084506 71 279 2.0 4.0 0.00 0.00 0.00 82 1016.8
20260905083006 72 342 2.0 6.0 0.00 0.00 0.00 80 1016.8
20260905081506 72 15 3.0 7.0 0.00 0.00 0.00 79 1016.8
20260905080003 73 352 2.0 6.0 0.00 0.00 0.00 80 1016.6
20260905074503 73 352 2.0 4.0 0.00 0.00 0.00 80 1016.6
20260905073003 74 349 2.0 4.0 0.00 0.00 0.00 78 1016.5
20260905071612 75 46 1.0 4.0 0.00 0.00 0.00 76 1016.3
20260905070110 76 1 1.0 5.0 0.00 0.00 0.00 74 1016.2
20260905064559 76 178 2.0 5.0 0.00 0.00 0.00 72 1016.2
20260905063100 77 344 1.0 5.0 0.00 0.00 0.00 70 1016.1
20260905061613 78 1 3.0 6.0 0.00 0.00 0.00 68 1016.0
20260905060056 79 89 2.0 5.0 0.00 0.00 0.00 65 1015.9
20260905054558 80 1 2.0 7.0 0.00 0.00 0.00 63 1016.0
20260905053051 80 344 2.0 7.0 0.00 0.00 0.00 65 1016.1
20260905051549 82 4 4.0 7.0 0.00 0.00 0.00 60 1016.2